Iowa City, IA

3:00 PM CDT on April 02, 2020 (GMT -0500)
Iowa City Municipal

Weather History for KIOW - September, 2019

Change the Weather History Date:

Friday, September 27, 2019

  Actual Average Record
Temperature  
Mean Temperature 68 °F -  
Max Temperature 72 °F - 89 °F (1954)
Min Temperature 63 °F - 34 °F (1985)
Cooling Degree Days 3    
Month to date cooling degree days 189  
Year to date cooling degree days 1144  
Growing Degree Days 17 (Base 50)    
Moisture  
Dew Point 61 °F    
Average Humidity 71    
Maximum Humidity 93    
Minimum Humidity 48    
Precipitation  
Precipitation 0.33 in - 0.51 in (1955)
Month to date precipitation 5.96  
Year to date precipitation 35.44  
Sea Level Pressure  
Sea Level Pressure 29.70 in    
Wind  
Wind Speed 7 mph (SE)    
Max Wind Speed 17 mph    
Max Gust Speed 25 mph    
Visibility 8 miles    
Events Rain , Thunderstorm    
T = Trace of Precipitation, MM = Missing Value Source: NWS Daily Summary

Daily Weather History Graph

Daily Weather History Graph

Search for Another Location

Airport or City:

Astronomy

Sep. 27, 2019 Rise Set
Actual Time 6:58 AM CDT 6:55 PM CDT
Civil Twilight 6:30 AM CDT 7:22 PM CDT
Nautical Twilight 5:58 AM CDT 7:54 PM CDT
Astronomical Twilight 5:25 AM CDT 8:27 PM CDT
Moon 5:18 AM CDT (9/27) 6:47 PM CDT (9/27)
Length of Visible Light 12h 51m
Length of Day
11h 56m
Waning Crescent, 2% of the Moon is Illuminated
Sep 27
Waning Crescent
Sep 28
New
Oct 5
First Quarter
Oct 13
Full
Oct 21
Last Quarter

Hourly Weather History & Observations

Time (CDT) Temp. Dew Point Humidity Pressure Visibility Wind Dir Wind Speed Gust Speed Precip Events Conditions
12:52 AM 66.0 °F 46.9 °F 50% 29.80 in 10.0 mi South 12.7 mph - N/A   Overcast
1:52 AM 66.9 °F 46.9 °F 49% 29.78 in 10.0 mi South 13.8 mph 23.0 mph N/A   Overcast
2:52 AM 64.9 °F 50.0 °F 58% 29.75 in 10.0 mi SSE 10.4 mph - N/A   Overcast
3:52 AM 66.0 °F 50.0 °F 56% 29.73 in 10.0 mi SSE 8.1 mph - 0.00 in   Overcast
4:52 AM 66.0 °F 52.0 °F 60% 29.72 in 10.0 mi South 10.4 mph - N/A   Overcast
5:52 AM 66.9 °F 54.0 °F 63% 29.71 in 10.0 mi South 11.5 mph - N/A   Overcast
6:16 AM 66.9 °F 54.0 °F 63% 29.71 in 10.0 mi South 12.7 mph - N/A Thunderstorm Overcast
6:32 AM 64.0 °F 57.0 °F 78% 29.70 in 10.0 mi South 9.2 mph 23.0 mph 0.00 in Rain Light Rain
6:52 AM 64.0 °F 57.0 °F 78% 29.68 in 10.0 mi SSE 6.9 mph - 0.00 in Thunderstorm Overcast
7:12 AM 64.0 °F 57.0 °F 78% 29.70 in 10.0 mi South 5.8 mph - 0.01 in Rain , Thunderstorm Light Thunderstorms and Rain
7:24 AM 63.0 °F 57.0 °F 81% 29.70 in 2.5 mi East 4.6 mph - 0.10 in Rain , Thunderstorm Light Thunderstorms and Rain
7:32 AM 63.0 °F 57.9 °F 84% 29.68 in 10.0 mi ESE 9.2 mph - 0.10 in Rain , Thunderstorm Light Thunderstorms and Rain
7:42 AM 63.0 °F 59.0 °F 87% 29.69 in 10.0 mi SE 6.9 mph - 0.10 in Thunderstorm Mostly Cloudy
7:52 AM 63.0 °F 57.9 °F 84% 29.68 in 10.0 mi SE 5.8 mph - 0.10 in Rain , Thunderstorm Light Rain
8:26 AM 63.0 °F 59.0 °F 87% 29.69 in 8.0 mi Calm Calm - 0.04 in Rain , Thunderstorm Light Thunderstorms and Rain
8:39 AM 63.0 °F 59.0 °F 87% 29.69 in 2.0 mi South 4.6 mph - 0.09 in Rain , Thunderstorm Thunderstorms and Rain
8:50 AM 62.6 °F 60.8 °F 94% 29.70 in 1.5 mi South 6.9 mph - 0.17 in Rain , Thunderstorm Heavy Thunderstorms and Rain
8:52 AM 63.0 °F 60.1 °F 90% 29.69 in 1.5 mi South 6.9 mph - 0.17 in Rain , Thunderstorm Light Thunderstorms and Rain
8:54 AM 63.0 °F 60.1 °F 90% 29.69 in 2.0 mi SSE 6.9 mph - 0.00 in Rain Light Rain
8:56 AM 63.0 °F 60.1 °F 90% 29.70 in 3.0 mi South 5.8 mph - 0.00 in Rain Light Rain
9:04 AM 63.0 °F 60.1 °F 90% 29.69 in 2.5 mi South 5.8 mph - 0.03 in Rain Rain
9:09 AM 63.0 °F 60.1 °F 90% 29.69 in 3.0 mi South 6.9 mph - 0.04 in Rain Light Rain
10:49 AM 64.4 °F 62.6 °F 94% 29.70 in 9.0 mi South 9.2 mph - N/A   Overcast
10:52 AM 64.9 °F 62.1 °F 90% 29.69 in 10.0 mi SSE 8.1 mph - N/A   Overcast
11:22 AM 64.9 °F 63.0 °F 93% 29.69 in 10.0 mi SSE 4.6 mph - N/A   Overcast
11:45 AM 66.0 °F 63.0 °F 90% 29.68 in 10.0 mi SE 5.8 mph - N/A   Overcast
11:52 AM 66.0 °F 63.0 °F 90% 29.66 in 10.0 mi SE 6.9 mph - N/A   Overcast
12:52 PM 69.1 °F 64.9 °F 87% 29.65 in 10.0 mi SSE 6.9 mph - N/A   Overcast
1:06 PM 70.0 °F 66.0 °F 87% 29.66 in 10.0 mi South 4.6 mph - N/A   Overcast
1:24 PM 69.1 °F 64.9 °F 87% 29.66 in 10.0 mi SSE 4.6 mph - N/A   Overcast
1:52 PM 70.0 °F 66.0 °F 87% 29.65 in 10.0 mi SSE 3.5 mph - N/A   Overcast
2:52 PM 71.1 °F 66.0 °F 84% 29.65 in 10.0 mi ESE 3.5 mph - N/A   Overcast
3:52 PM 71.1 °F 66.9 °F 87% 29.67 in 5.0 mi SSE 3.5 mph - 0.00 in   Overcast
4:07 PM 70.0 °F 68.0 °F 93% 29.68 in 2.0 mi SE 3.5 mph - 0.00 in Rain Light Rain
4:37 PM 71.1 °F 68.0 °F 90% 29.67 in 6.0 mi ENE 3.5 mph - 0.02 in   Overcast
4:52 PM 71.1 °F 68.0 °F 90% 29.66 in 9.0 mi East 3.5 mph - 0.02 in   Overcast
5:36 PM 72.0 °F 68.0 °F 87% 29.69 in 10.0 mi Calm Calm - N/A   Overcast
5:52 PM 71.1 °F 68.0 °F 90% 29.69 in 10.0 mi Calm Calm - N/A   Overcast
6:27 PM 72.0 °F 69.1 °F 91% 29.69 in 8.0 mi NNW 4.6 mph - N/A   Overcast
6:46 PM 71.6 °F 68.0 °F 88% 29.69 in 8.0 mi North 4.6 mph - N/A   Overcast
6:47 PM 72.0 °F 68.0 °F 87% 29.69 in 8.0 mi North 4.6 mph - N/A   Overcast
7:22 PM 71.1 °F 68.0 °F 90% 29.69 in 10.0 mi ENE 3.5 mph - N/A   Overcast
7:52 PM 71.1 °F 68.0 °F 90% 29.70 in 10.0 mi North 6.9 mph - N/A   Overcast
8:52 PM 69.1 °F 64.9 °F 87% 29.73 in 10.0 mi North 12.7 mph - N/A   Overcast
9:28 PM 68.0 °F 63.0 °F 84% 29.72 in 10.0 mi North 12.7 mph - N/A   Overcast
9:52 PM 68.0 °F 64.0 °F 87% 29.79 in 10.0 mi ENE 5.8 mph - N/A   Overcast
10:04 PM 68.0 °F 63.0 °F 84% 29.79 in 10.0 mi NNE 8.1 mph - N/A   Overcast
10:52 PM 66.9 °F 63.0 °F 87% 29.81 in 10.0 mi North 8.1 mph - N/A   Overcast
11:52 PM 66.9 °F 61.0 °F 81% 29.86 in 10.0 mi NNE 6.9 mph - N/A   Overcast